STARLINK-31470, 59569

Orbit data source: Space-Track

STARLINK-31470, 59569 is a payload satellite owned by SpaceX/Seattle (US) in LEO that was launched on Tue, 23 Apr 2024 UTC via an FALCON 9 launch vehicle from the Air Force Eastern Test Range (AFETR). Payload-class satellites include a variety of spacecraft equipped with specific instruments for various scientific and technological missions. These include communications satellites like Starlink; space stations such as the ISS; scientific satellites like the Hubble; Earth observation satellites from companies like Planet Labs, Umbra, and HawkEye 360; GPS; miniature CubeSats for education and research; and military/defense satellites.

Loading next visibility...
Identifier
59569, 2024-076F
Orbit
LEO
Last TLE update
19 hours ago
Origin
Manufacturer
SpaceX/Seattle
Mission
Operational spacecraft
Bus & Motor
STARLINK V2M, Unknown motor
Mass
730 kg wet, ~700 kg dry
Launch date (UTC)
2024-04-23 (1 year ago)
Launch vehicle
FALCON 9
Launch site
Air Force Eastern Test Range (AFETR)
Object type
Payload
Rocket body
Debris
Shape & HBR
Unknown
Radar Cross Section
Large (>1 m²)

Expand to show TLE details & history

TLE from 19 hours ago
0 STARLINK-31470
1 59569U 24076F   25128.47612149 -.00007468  00000-0 -26187-3 0  9999
2 59569  43.0010 289.2799 0003919 256.1354 103.9061 15.27598430 59770
Epoch: 2025-05-08T11:25Z
Definitive object data (Epoch: 2025-05-08T11:25:36.896Z)
Latitude
-0.00008°
Longitude
-108.66999°
Altitude
483.417 km
Speed
7.625 km/s
True Right ascension
19h 17m 07s
True Declination
0° 00' 00"
Sunlit
Object was in full shadow at TLE epoch
Visualization TLE readout
Latitude
33.49919°
Longitude
21.87168°
Altitude
486.111 km
Speed
7.626 km/s
Apparent Right ascension
03h 30m 46s
Apparent Declination
-1° 38' 39"
Sunlit
Object is in daylight
Visualization observer readout
Local Sidereal Time
14:57:23
Azimuth
346.676° N
Elevation
-50.983°
Doppler factor
1
Orbital elements
Apogee altitude
487.629 km
Perigee altitude
482.249 km
Semi-major axis
6,863.076 km
Eccentricity
0.0003919
Inclination
43.001°
RAAN
289.2799°
Arg. of periapsis
256.1354°
True anomaly
103.94969°
Mean anomaly
103.9061°
Eccentric anomaly
103.92789°
Mean motion
3.81738 °/min
BSTAR
-0.00026187
Orbital period
94.31 mins
Loading maneuver chart data...
Loading SW <> Apogee altitude chart data...
Loading historical data...
Loading historical data...
Loading historical data...
Loading historical data...
Loading historical data...
Loading historical data...
Loading historical data...

STARLINK-31470 Visibility forecast

Observer location: undefined°, undefined°

Span
Click to sort rows by Start time (UTC) header in descending order
Start Az.
Max El. time (UTC)
Max El. Az.
Max El.
End time (UTC)
End Az.
6 mins2025-05-09 14:20:29.635Z232.512° WSW2025-05-09 14:23:29.635Z117.99° SE39.427°2025-05-09 14:26:29.635Z76.132° E
6 mins2025-05-09 15:59:29.635Z279.151° WNW2025-05-09 16:02:29.635Z23.865° NE37.903°2025-05-09 16:05:29.635Z71.654° E
5 mins2025-05-09 17:39:29.635Z298.269° NW2025-05-09 17:41:29.635Z33.511° NE41.304°2025-05-09 17:44:29.635Z92.231° ESE
5 mins2025-05-09 19:18:29.635Z263.23° W2025-05-09 19:20:29.635Z192.069° SSW33.503°2025-05-09 19:23:29.635Z137.349° SSE
|